Location: Newark
(23.1300°N, 73.6109°E)
Time: 01:08:36
(UTC+00:00)

Envisat - Pass Details

Date: 31 July 2021
Orbit: 764 x 766 km, 98.2° (Epoch: 28 September)

Event Time Altitude Azimuth Distance (km) Brightness Sun altitude
Rises 23:48:30 0° 20° (NNE) 3,229 7.0 -11.0°
Reaches altitude 10° 23:50:53 10° 26° (NNE) 2,301 6.3 -10.5°
Maximum altitude 23:55:46 48° 100° (E) 996 4.0 -9.4°
Drops below altitude 10° 00:00:38 10° 174° (S) 2,291 5.3 -8.4°
Sets 00:03:00 0° 180° (S) 3,214 6.0 -7.9°
